Showing default

YAOGAN-39 01C, 57731

Orbit data source: Space-Track

YAOGAN-39 01C, 57731 is a payload satellite owned by PLA GAD (CN) in LEO that was launched on Thu, 31 Aug 2023 UTC via a CHANG ZHENG 2D launch vehicle from the Xichang Space Center, China (XSC). Payload-class satellites include a variety of spacecraft equipped with specific instruments for various scientific and technological missions. These include communications satellites like Starlink; space stations such as the ISS; scientific satellites like the Hubble; Earth observation satellites from companies like Planet Labs, Umbra, and HawkEye 360; GPS; miniature CubeSats for education and research; and military/defense satellites.

Loading next visibility...
Identifier
57731, 2023-130E
Orbit
LEO
Country
Flag of CNCN / PRC
Related business
Manufacturer
DFH
Mission
Operational Defense Sigint
Bus & Motor
Unknown
Mass
~300 kg wet, ~300 kg dry
Launch date (UTC)
2023-08-31 (2 years ago)
Launch vehicle
CHANG ZHENG 2D
Launch site
Xichang Space Center, China (XSC)
Object type
Payload
Rocket body
Debris
Shape & HBR
Box + 2 Pan, 2.5 m
Radar Cross Section
11.063 m², Large (>1 m²)

Expand to show TLE details & history
Last TLE update: 17 hours ago

TLE from 17 hours ago
0 YAOGAN-39 01C
1 57731U 23130E   25259.85753687  .00005894  00000-0  28712-3 0  9993
2 57731  34.9942  56.0742 0001723  65.7172 294.3721 15.17704625113923
Epoch: 2025-09-16T20:34Z
TLE epoch observation values (Epoch: 2025-09-16T20:34:51.185Z)
Latitude
-0.00001°
Longitude
111.3191°
Altitude
511.199 km
Speed
7.611 km/s
True Right ascension
03h 44m 17s
True Declination
0° 00' 00"
Sunlit
Object was in full shadow at epoch
Visualization orbit readout
Latitude
Unknown
Longitude
Unknown
Altitude
Unknown
Speed
Unknown
Apparent Right ascension
Unknown
Apparent Declination
Unknown
Sunlit
N/A
Visualization observer readout
Local Sidereal Time
05:58:23
Azimuth
Unknown
Elevation
Unknown
Doppler factor
Unknown
Orbital elements
Apogee altitude
517.211 km
Perigee altitude
514.835 km
Semi-major axis
6,894.16 km
Eccentricity
0.00017
Inclination
34.9942°
RAAN
56.0742°
Arg. of periapsis
65.7172°
True anomaly
294.35411°
Mean anomaly
294.3721°
Eccentric anomaly
294.36311°
Mean motion
3.79159 °/min
Orbital period
94.95 mins
BSTAR
0.00028712
Loading maneuver chart data...
Computing Atmospheric mass density...
Loading historical data...
Loading historical data...
Loading historical data...
Loading historical data...
Loading historical data...
Loading historical data...
Loading historical data...
Other satellites on launch #130 in the year 2023 (2023-08-31 UTC)

Documentation

Showing up to 5 results
|